Location: Arthurs Seat
(13.1500°N, 59.6000°W)
Time: 12:33:47
(UTC+00:00)

Cosmos 1898 Rocket - Pass Details

Date: 25 August 2019
Orbit: 754 x 784 km, 74.0° (Epoch: 22 October)

Event Time Altitude Azimuth Distance (km) Brightness Sun altitude
Rises 22:37:54 0° 170° (S) 3,252 6.5 -6.5°
Reaches altitude 10° 22:40:36 10° 158° (SSE) 2,322 5.7 -7.2°
Maximum altitude 22:45:02 28° 100° (E) 1,425 4.3 -8.2°
Drops below altitude 10° 22:49:27 10° 43° (NE) 2,308 5.7 -9.3°
Sets 22:52:06 0° 32° (NNE) 3,229 6.5 -9.9°
